Location: *
(51.0333°S, 178.4667°E)
Time: 22:27:14
(UTC+00:00)

CZ-4 R/B - Visible Passes

Search period start: 21 February 2020 00:00
Search period end: 02 March 2020 00:00
Orbit: 534 x 597 km, 97.7° (Epoch: 21 February)

Date Brightness Start Highest point End Pass type
(mag) Time Alt. Az. Time Alt. Az. Time Alt. Az.
21 Feb 4.9 09:13:23 10° SSW 09:15:20 13° WSW 09:17:18 10° W visible
22 Feb 4.9 09:13:49 10° SSW 09:15:45 13° WSW 09:17:43 10° W visible
23 Feb 4.9 09:14:14 10° SSW 09:16:11 13° WSW 09:18:08 10° W visible
24 Feb 4.9 09:14:40 10° SSW 09:16:37 13° SW 09:18:33 10° W visible
25 Feb 4.9 09:15:06 10° SSW 09:17:02 13° SW 09:18:58 10° W visible
26 Feb 1.6 07:38:51 10° SSE 07:43:04 85° WSW 07:47:19 10° NNW visible
26 Feb 4.9 09:15:32 10° SSW 09:17:27 13° SW 09:19:22 10° W visible
26 Feb 4.7 16:57:41 10° E 17:00:06 16° ESE 17:02:32 10° SSE visible
27 Feb 1.6 07:39:16 10° SSE 07:43:30 84° WSW 07:47:45 10° NNW visible
27 Feb 4.9 09:15:57 10° SSW 09:17:52 13° SW 09:19:47 10° W visible
28 Feb 1.6 07:39:41 10° SSE 07:43:56 83° WSW 07:48:10 10° NNW visible
28 Feb 4.9 09:16:24 10° SSW 09:18:17 13° SW 09:20:12 10° W visible
29 Feb 1.6 07:40:07 10° SSE 07:44:21 83° WSW 07:48:36 10° NNW visible
29 Feb 4.9 09:16:50 10° SSW 09:18:42 13° SW 09:20:36 10° W visible
29 Feb 4.7 16:58:50 10° E 17:01:20 16° ESE 17:03:53 10° SSE visible
01 Mar 1.6 07:40:32 10° SSE 07:44:47 82° WSW 07:49:02 10° NNW visible
01 Mar 4.9 09:17:15 10° SSW 09:19:08 13° SW 09:21:00 10° W visible
01 Mar 4.7 16:59:14 10° E 17:01:45 16° ESE 17:04:19 10° SSE visible
